Preview of NWS' New Version of Forecast
This preview is not operational and should not be used for support decisions.

Regional Weather Roundup (RWR)

Issued by National Weather Service (NWS)

                            
000
ASUS45 KCYS 260210
RWRWY 

WYOMING REGIONAL WEATHER ROUNDUP
NATIONAL WEATHER SERVICE CHEYENNE WY
800 PM MDT TUE JUN 25 2019

NOTE:  "FAIR" INDICATES FEW OR NO CLOUDS BELOW 12,000 FEET
WITH NO SIGNIFICANT WEATHER AND/OR OBSTRUCTIONS TO VISIBILITY.

WYZ001-260300-
...YELLOWSTONE NATIONAL PARK...
  
CITY           SKY/WX    TMP DP  RH WIND       PRES   REMARKS
LK YELLOWSTONE   N/A     60  29  30 MISG      30.07R                  
W YELLOWSTONE  NOT AVBL                                               

$$
WYZ002>013-054>058-071-098>099-260300-
...NORTHERN WYOMING...
  
CITY           SKY/WX    TMP DP  RH WIND       PRES   REMARKS
JACKSON        MOSUNNY   65  46  50 W5        29.97S                  
CODY           MOCLDY    60  46  59 N9        29.96R                  
GREYBULL       MOCLDY    73  45  36 NW18      29.83R                  
WORLAND        MOCLDY    74  44  34 N21G40    29.82R                  
SHERIDAN       PTCLDY    63  50  62 NW12      29.94R                  
BUFFALO        MOCLDY    62  48  60 NW22G30   29.94R                  
GILLETTE       CLOUDY    68  53  58 SE6       29.85R                  
HULETT         FAIR      68  55  64 SE12G22   29.82F                  
NEWCASTLE      FAIR      72  41  33 SE13      29.88R                  

$$
WYZ014>020-022>026-101>103-260300-
...CENTRAL WYOMING...
  
CITY           SKY/WX    TMP DP  RH WIND       PRES   REMARKS
BIG PINEY      CLEAR     70  32  24 W15G24    30.03S                  
PINEDALE       PTCLDY    68  28  22 W8        30.05S                  
DUBOIS         FAIR      64  23  20 NW10G22   30.00S                  
LANDER         PTCLDY    76  32  20 SW8       29.88R                  
RIVERTON       PTCLDY    80  31  16 SW14G25   29.89R                  
CASPER         MOCLDY    73  35  25 SW23G32   29.90R                  
DOUGLAS        CLOUDY    70  46  42 CALM      29.91F                  

$$
WYZ021-027>030-104>119-260300-
...SOUTHERN WYOMING...
  
CITY           SKY/WX    TMP DP  RH WIND       PRES   REMARKS
EVANSTON       PTCLDY    70  28  21 SW14      30.02S                  
KEMMERER       CLEAR     70  32  24 W9        30.04R                  
FORT BRIDGER   NOT AVBL                                               
ROCK SPRINGS   MOCLDY    72  30  21 SW16G28   30.01R                  
DIXON          MOCLDY    63  44  50 NE10      30.11R                  
RAWLINS        LGT RAIN  67  32  27 W33G54    30.09R                  
SARATOGA       FAIR      63  37  39 NW6       30.13R                  
LARAMIE        NOT AVBL                                               
CHEYENNE       CLOUDY    67  39  35 N14       30.10R                  
TORRINGTON     CLOUDY    65  51  60 W8        29.93R                  
PINE BLUFFS    MOCLDY    68  46  45 E8        30.00S                  

$$